INSAT-3D

Last updated on Sun Aug 31 2025 00:02:22 GMT+0000 (Coordinated Universal Time)

1 39216U 13038B 25241.90956560 -.00000336 00000+0 00000+0 0 9991 2 39216 1.1677 86.4602 0000888 104.7318 244.1527 1.00269945 44154
UTC large
Height (km)
Speed (km/s)
/
Latitude / Longitude
Inclination (degrees)
Orbital Period (minutes)
Azimuth
Elevation
Range (km)
Doppler Factor

Next 0 passes for location: London (51.5072 / 0.1276)

Sorry there are no passes over London.